User: anonymous   Login
Location: Unspecified
(0.0000°N, 0.0000°E)
Time: 04:54:51
(UTC+02:00)
Language:

GPS 2-12 Rocket1 - Orbit

View from above orbital plane
View from above orbital plane
View from above satellite
View from above satellite

Ground track
Ground track

The orbit data is extracted from the following two-line orbital elements,

1 21891U 92009B   17146.03907430 +.00000633 +00000-0 +26989-4 0  9996
2 21891 019.9976 036.6933 0047300 166.5682 193.6003 14.82874829362974
Epoch (UTC): 26 May 2017 00:56:16
Eccentricity: 0.0047300
inclination: 19.9976°
perigee height: 587 km
apogee height: 653 km
right ascension of ascending node: 36.6933°
argument of perigee: 166.5682°
revolutions per day: 14.82874829
mean anomaly at epoch: 193.6003°
orbit number at epoch: 36297

The dashed part of the orbit path shows where the satellite is in the earth's shadow,  

DLR